Flag for United Kingdom Weather past 2 weeks in Newcastle upon Tyne, England, United Kingdom

Now
43 °F

Passing clouds.


Feels Like: 36 °F
Forecast: N/A
Wind: 13 mph from Southwest

Location: Newcastle

Current Time: Jan 27, 2015 at 9:06:00 PM

Latest Report: Jan 27, 2015 at 8:20 PM


Visibility: N/A

Pressure: 29.95 "Hg

Humidity: 81%

Dew point: 37 °F

Location of Newcastle upon TyneLocation

Historic Weather in Newcastle upon Tyne — Graph

°F

Newcastle upon Tyne temperature yesterday

Maximum temperature yesterday: 46 °F (at 12:20 AM)
Minimum temperature yesterday: 37 °F (at 4:20 PM)
Average temperature yesterday: 41 °F

Past Weeks' High & Low Weather Summary

 TemperatureHumidityPressure
High50 °F (Jan 25, 4:50 PM)100% (Jan 18, 12:20 AM)30.30 "Hg (Jan 18, 12:20 AM)
Low27 °F (Jan 18, 12:20 AM)57% (Jan 15, 12:20 PM)28.62 "Hg (Jan 15, 5:20 PM)
Average37 °F85%29.74 "Hg
* Reported Jan 12 7:20 PM — Jan 27 7:50 PM, Newcastle upon Tyne, Weather by CustomWeather, © 2014

Note: Actual official high and low records may vary slightly from our data, if they occured in-between our weather recording intervals... More about our weather records

Advertising

Newcastle upon Tyne weather history for previous 24 hours

 ConditionsComfort  
Time TempWeatherWind HumidityBarometerVisibility
7:50 PM
Jan 27
43 °FPassing clouds.10 mph81%29.95 "HgN/A
7:20 PM43 °FPassing clouds.15 mph81%29.98 "HgN/A
6:50 PM43 °FPassing clouds.15 mph81%29.98 "HgN/A
6:20 PM43 °FPassing clouds.10 mph87%30.01 "HgN/A
5:50 PM43 °FPassing clouds.16 mph87%30.04 "HgN/A
5:20 PM43 °FPassing clouds.15 mph87%30.04 "HgN/A
4:50 PM43 °FPassing clouds.18 mph87%30.04 "HgN/A
4:20 PM43 °FScattered clouds.17 mph87%30.07 "HgN/A
3:50 PM45 °FPartly sunny.18 mph81%30.07 "HgN/A
3:20 PM45 °FPartly sunny.17 mph81%30.07 "HgN/A
2:50 PM45 °FPartly sunny.16 mph81%30.07 "HgN/A
2:20 PM45 °FPartly sunny.16 mph81%30.09 "HgN/A
1:50 PM46 °FPartly sunny.14 mph82%30.12 "HgN/A
1:20 PM45 °FScattered clouds.14 mph87%30.12 "HgN/A
12:50 PM46 °FScattered clouds.14 mph82%30.12 "HgN/A
12:20 PM46 °FScattered clouds.15 mph82%30.15 "HgN/A
11:50 AM46 °FScattered clouds.13 mph82%30.15 "HgN/A
11:20 AM46 °FScattered clouds.14 mph82%30.15 "HgN/A
10:50 AM46 °FPassing clouds.14 mph87%30.18 "HgN/A
10:20 AM45 °FPassing clouds.14 mph87%30.18 "HgN/A
9:50 AM45 °FPassing clouds.12 mph87%30.18 "HgN/A
9:20 AM43 °FScattered clouds.13 mph93%30.18 "HgN/A
8:50 AM43 °FPartly sunny.14 mph93%30.18 "HgN/A
8:20 AM43 °FPartly sunny.15 mph93%30.18 "HgN/A
7:50 AM43 °FPassing clouds.16 mph93%30.18 "HgN/A
7:20 AM43 °FPassing clouds.12 mph93%30.18 "HgN/A
6:50 AM43 °FPassing clouds.14 mph87%30.21 "HgN/A
6:20 AM41 °FPassing clouds.13 mph93%30.21 "HgN/A
5:50 AM41 °FPassing clouds.12 mph93%30.21 "HgN/A
5:20 AM41 °FPassing clouds.9 mph93%30.21 "HgN/A
4:50 AM41 °FClear.10 mph87%30.24 "Hg10 mi
3:50 AM41 °FClear.14 mph87%30.21 "Hg10 mi
3:20 AM39 °FClear.12 mph93%30.24 "Hg10 mi
2:50 AM39 °FClear.12 mph93%30.24 "Hg10 mi
2:20 AM39 °FClear.15 mph93%30.24 "Hg10 mi
1:50 AM39 °FClear.12 mph93%30.24 "Hg10 mi
1:20 AM39 °FClear.12 mph87%30.21 "Hg10 mi
12:50 AM37 °FClear.15 mph93%30.24 "Hg10 mi
12:20 AM37 °FClear.14 mph93%30.24 "Hg10 mi
11:50 PM
Jan 26
37 °FClear.13 mph87%30.24 "Hg10 mi
11:20 PM37 °FClear.12 mph87%30.24 "Hg10 mi
10:50 PM37 °FClear.17 mph87%30.24 "Hg10 mi
10:20 PM37 °FClear.17 mph87%30.21 "Hg10 mi
9:50 PM37 °FClear.13 mph87%30.21 "Hg10 mi
9:20 PM37 °FClear.15 mph87%30.21 "Hg10 mi
Weather by CustomWeather, © 2014

See weather overviewHow to use our weather pages